Regional Weather Roundup
Issued by NWS

Home | Current Version | Previous Version | Graphics & Text | Print | Product List | Glossary Off
Versions: 1 2 3 4 5 6 7 8 9 10 11 12 13 14 15 16 17 18 19 20 21 22 23 24 25 26 27 28 29 30 31 32 33 34 35 36 37 38 39 40 41 42 43 44 45 46 47 48 49 50

445
ASUS43 KFSD 260010
RWRSD

WEATHER ROUNDUP FOR SOUTH DAKOTA
NATIONAL WEATHER SERVICE SIOUX FALLS SD
700 PM CDT SUN JUN 25 2017

NOTE: "FAIR" INDICATES FEW OR NO CLOUDS BELOW 12,000 FEET WITH NO
SIGNIFICANT WEATHER AND/OR OBSTRUCTIONS TO VISIBILITY.


SDZ001>005-009-010-012>017-260100-
NORTHWEST AND NORTH CENTRAL SOUTH DAKOTA

CITY           SKY/WX    TMP DP  RH WIND       PRES   REMARKS
BUFFALO          N/A     78  34  20 NE15G23   30.15R
FAITH            N/A     74  37  26 E13G22    30.17S
MOBRIDGE       SUNNY     74  38  27 N18G24    30.16F
$$

SDZ012>016-024>037-041>051-057-063-072>074-260100-
SOUTHWEST AND SOUTH CENTRAL SOUTH DAKOTA

CITY           SKY/WX    TMP DP  RH WIND       PRES   REMARKS
RAPID CTY ARPT MOSUNNY   76  36  23 N6        30.19F
PIERRE         SUNNY     79  34  19 NW9       30.12F
CUSTER         MOSUNNY   69  29  22 VRB6      30.29F
ELLSWORTH AFB  SUNNY     79  33  18 N15G21    30.18F
PHILIP         MOSUNNY   81  33  17 N10       30.14F
PINE RIDGE     PTSUNNY   79  46  31 NE7       30.19F
SPEARFISH      FAIR      73  32  21 NW12G20   30.25S
WINNER         FAIR      81  35  19 SW7       30.16F
$$

SDZ004>011-016>023-039-040-260100-
NORTHEAST SOUTH DAKOTA

CITY           SKY/WX    TMP DP  RH WIND       PRES   REMARKS
ABERDEEN       PTSUNNY   63  49  60 NE3       30.19F
WATERTOWN      LGT RAIN  56  49  77 W6        30.20F
BROOKINGS      CLOUDY    64  45  49 N12       30.21F
SISSETON         N/A     68  45  43 W14       30.16S
$$

SDZ017-020-022-023-036>040-048>070-260100-
SOUTHEAST SOUTH DAKOTA

CITY           SKY/WX    TMP DP  RH WIND       PRES   REMARKS
SIOUX FALLS    MOSUNNY   72  47  40 NW6       30.20F
HURON          MOSUNNY   73  43  33 N6        30.17F
CHAMBERLAIN    CLOUDY    77  41  27 CALM      30.15F
MITCHELL       MOSUNNY   75  40  28 SE6       30.17F
YANKTON        SUNNY     73  42  32 VRB3      30.21F
$$

ABBREVIATIONS USED IN REMARKS
   TC - TEMPERATURE IN CELSIUS
  WCI - WIND CHILL INDEX
   HX - HEAT INDEX
  VSB - VISIBILITY





USA.gov is the U.S. government's official web portal to all federal, state and local government web resources and services.